Погода в Базаре

Украина / Житомирская область     51°02′37″N   29°17′36″E
темп.,
°C
ветер,
м/с
пор.,
м/с
влажн.,
%
обл.,
%
осадки,
мм/ч
давл.,
гПа
погр.,
м
16 апреля, пт
пт1600:00+6зюз3697100 0.0 1012201
03:00+6з3595100 0.0 1011235
06:00+5зюз2495100 0.1 1011202
09:00+5зюз2391100 0.3 1011247
12:00+6зюз2385100 0.4 1012350
15:00+7юз3383100 0.5 1012424
18:00+7зюз3380100 0.0 1013508
21:00+4зюз4592100 0.0 1014259
17 апреля, сб
сб1700:00+3зюз3597100 0.0 1015249
03:00+3з2497100 0.2 1016254
06:00+3зюз3497100 0.4 1016220
09:00+4з2292100 0.4 1018297
12:00+5зюз2287100 0.1 1019400
15:00+7юз217989 0.1 1019645
18:00+7ююз327949 0.0 1019534
21:00+4ююз359231 0.0 1019104
18 апреля, вс
вс1800:00+4юз379293 0.0 1019170
03:00+2зюз479426 0.0 1018146
06:00+3зюз499591 0.0 1016191
09:00+5зюз51087100 0.1 1016333
12:00+6зюз61193100 1.6 1015500
15:00+9з568485 2.4 1016579
18:00+10з468069 0.4 1015557
21:00+6ссв479199 1.0 1017290
19 апреля, пн
пн1900:00+4ссз359461 0.0 1017239
03:00+5сз239597 0.0 1016137
06:00+5ссз359795 0.0 1016230
09:00+6с358267 0.0 1015586
12:00+7ссв3386100 0.1 1015661
15:00+9ссв337298 0.2 1013917
18:00+8ссв347498 0.0 1012473
21:00+7с368298 0.0 1011169
20 апреля, вт
вт2000:00+6с4786100 0.1 1009259
03:00+6с4990100 0.1 1006284
06:00+6с61294100 0.0 1002571
09:00+6ссз71393100 0.1 999775
12:00+7сз81392100 0.1 9961084
15:00+5ссв91596100 6.3 10021128
18:00+4с81496100 2.8 10011029
21:00+3с71297100 6.7 1001924